Regional Weather Roundup
Issued by NWS

Home | Current Version | Previous Version | Text Only | Print | Product List | Glossary On
Versions: 1 2 3 4 5 6 7 8 9 10 11 12 13 14 15 16 17 18 19 20 21 22 23 24 25 26 27 28 29 30 31 32 33 34 35 36 37 38 39 40 41 42 43 44 45 46 47 48 49 50
000
ASUS43 KMKX 250659
RWRWI

WISCONSIN REGIONAL WEATHER ROUNDUP
NATIONAL WEATHER SERVICE MILWAUKEE/SULLIVAN WI
200 AM CDT THU MAY 25 2017

NOTE: "FAIR" INDICATES FEW OR NO CLOUDS BELOW 12,000 FEET WITH NO
SIGNIFICANT WEATHER AND/OR OBSTRUCTIONS TO VISIBILITY.

WIZ001-002-006>008-014>016-023>028-250800-
NORTHWEST WISCONSIN

CITY           SKY/WX    TMP DP  RH WIND       PRES   REMARKS
SUPERIOR ARPT  NOT AVBL
ASHLAND        PTCLDY    35  34  96 CALM      29.75F FOG
HAYWARD        CLEAR     41  39  93 CALM      29.73S
SIREN          CLOUDY    52  46  79 CALM      29.72F
CUMBERLAND     CLOUDY    50  46  87 CALM      29.72F
RICE LAKE      CLOUDY    52  48  85 N3        29.74S
CHETEK         CLOUDY    53  48  83 CALM      29.72S
LADYSMITH      CLOUDY    52  48  84 E3        29.73F
EAU CLAIRE     NOT AVBL
MENOMONIE      MOCLDY    52  49  89 CALM      29.71S
NEW RICHMOND   CLEAR     48  46  93 E3        29.71F
OSCEOLA        PTCLDY    51  47  84 E5        29.74S
$$

WIZ003>005-009-010-017-018-250800-
NORTH CENTRAL WISCONSIN

CITY           SKY/WX    TMP DP  RH WIND       PRES   REMARKS
MANITOWISH WTR CLOUDY    48  48  98 NE3       29.73F
ARBOR VITAE    CLEAR     50  48  92 CALM      29.72F
WOODRUFF       CLEAR     50  48  92 CALM      29.72F
RHINELANDER    PTCLDY    48  46  93 CALM      29.73S
EAGLE RIVER    CLOUDY    47  46  95 N3        29.73S
LAND O LAKES   PTCLDY    42  41  97 CALM      29.76S FOG
PHILLIPS       CLOUDY    50  48  95 CALM      29.73S
TOMAHAWK       CLEAR     46  44  94 CALM      29.72F
MEDFORD        MOCLDY    48  46  94 NE3       29.71S
MERRILL        MOCLDY    49  49 100 CALM      29.72S
$$

WIZ029-030-035-036-043>047-250800-
CENTRAL WISCONSIN

CITY           SKY/WX    TMP DP  RH WIND       PRES   REMARKS
WAUSAU         CLOUDY    51  48  89 N6        29.69F
MOSINEE        CLOUDY    50  50 100 N7        29.71F
MARSHFIELD     MOCLDY    47  45  93 N3        29.69F
STEVENS POINT  CLEAR     46  46 100 N3        29.69F
WAUPACA        PTCLDY    53  50  89 N6        29.68F
WAUTOMA        CLOUDY    53  50  89 N6        29.68S
WISC RAPIDS    MOCLDY    52  48  86 NE7       29.70F
CAMP DOUGLAS   NOT AVBL
$$

WIZ011>013-019>022-031-037>040-048>050-250800-
NORTHEAST WISCONSIN

CITY           SKY/WX    TMP DP  RH WIND       PRES   REMARKS
ANTIGO         MOCLDY    44  44 100 N7        29.71S
SHAWANO        CLOUDY    53  49  86 N7        29.69F
OCONTO         CLOUDY    50  47  91 N7        29.67F
STURGEON BAY   MOCLDY    49  47  93 N9        29.67F
GREEN BAY      MOCLDY    49  49 100 N6        29.66F
MANITOWOC      NOT AVBL
APPLETON       CLOUDY    50  50 100 N8        29.65F
CLINTONVILLE   MOCLDY    52  46  82 N7        29.67F
OSHKOSH        CLOUDY    53  49  86 NE13      29.65F
$$

WIZ032>034-041-042-053>061-250800-
SOUTHWEST WISCONSIN

CITY           SKY/WX    TMP DP  RH WIND       PRES   REMARKS
LA CROSSE      PTCLDY    50  48  93 CALM      29.69F
SPARTA         CLOUDY    48  48 100 CALM      29.71S
VIROQUA        CLOUDY    52  48  88 SW6       29.70S
BOSCOBEL       CLOUDY    54  49  83 N6        29.68F
PRAIRIE DU CHI CLOUDY    49  47  93 N3        29.69S
PLATTEVILLE    PTCLDY    51  51 100 N8        29.66F
$$

WIZ056-057-062-063-064-067-068-250800-
SOUTH CENTRAL WISCONSIN

CITY           SKY/WX    TMP DP  RH WIND       PRES   REMARKS
REEDSBURG      CLOUDY    52  51  95 N5        29.67F
BARABOO/DELLS  CLOUDY    53  48  83 N3        29.67F
LONE ROCK      NOT AVBL
MINERAL POINT  CLEAR     52  52 100 N8        29.66S
MADISON        CLOUDY    53  50  89 N12       29.64F
MIDDLETON      CLOUDY    54  50  88 N9        29.65F
WATERTOWN      CLOUDY    53  52  99 N10       29.62F
MONROE         CLOUDY    52  50  93 N10       29.63F
JANESVILLE     CLOUDY    54  52  94 N8        29.62S
$$

WIZ051-052-058>065-066-070>072-250800-
SOUTHEAST WISCONSIN

CITY           SKY/WX    TMP DP  RH WIND       PRES   REMARKS
MILWAUKEE      CLOUDY    55  51  86 N17G24    29.59S
WAUKESHA       CLOUDY    50  48  93 N8        29.62S
MILWAUKEE/TIMM   N/A     52  46  82 N10       29.61S
RACINE         CLOUDY    52  48  86 N20G28    29.59F
KENOSHA        CLOUDY    54  50  86 N10G17    29.57F
FOND DU LAC    CLOUDY    54  49  83 N12       29.64F
SHEBOYGAN      PTCLDY    51  50  96 N10       29.63S
WEST BEND      CLOUDY    52  50  93 N8        29.62F
JUNEAU         CLOUDY    52  50  93 N9        29.64F
$$

LSZ147-162-250800-
LAKE SUPERIOR

STATION/POSITION TIME  TEMP    WIND        PRES    WAVE
                       AIR SEA DIR/SP/G            HT/PER
                 (UTC) (F)     (DEG/KT/KT) (MB)    (FT/S)
$$

LMZ867-665-643>646-250800-
LAKE MICHIGAN

STATION/POSITION TIME  TEMP    WIND        PRES    WAVE
                       AIR SEA DIR/SP/G            HT/PER
                 (UTC) (F)     (DEG/KT/KT) (MB)    (FT/S)
$$

TC  - TEMPERATURE IN CELSIUS
VSB - VISIBILITY IN STATUTE MILES
WCI - WIND CHILL INDEX
HX  - HEAT INDEX





USA.gov is the U.S. government's official web portal to all federal, state and local government web resources and services.